CSDMS GOBD-LPPR

Flight info

Callsign CSDMS
Flight time 3h 51m
Altitude 39000
Route SAKLI1H SAKLI UR975 ECHED/N0434F400 DCT DOMOG DCT TAKAV DCT ABLEG
Aircraft B737/M-SDE2E3FGHIRWXY/LB1

Departure

Time 2026-05-04 15:53
Airport Blaise Diagne International Airport (GOBD)

Arrival

Time 2026-05-04 19:44
Airport Francisco de Sá Carneiro Airport (LPPR)
Time Latitude Longitude Altitude Speed Heading
2026-05-04 15:17 14.66751 -17.06816 291 ft 0 kts 359°
2026-05-04 15:37 14.66747 -17.06816 314 ft 3 kts 358°
2026-05-04 15:38 14.66722 -17.06810 322 ft 4 kts 332°
2026-05-04 15:38 14.66699 -17.06798 294 ft 4 kts 352°
2026-05-04 15:38 14.66678 -17.06796 291 ft 4 kts 338°
2026-05-04 15:38 14.66664 -17.06781 296 ft 4 kts 271°
2026-05-04 15:39 14.66665 -17.06759 294 ft 0 kts 269°
2026-05-04 15:41 14.66665 -17.06767 291 ft 2 kts 269°
2026-05-04 15:41 14.66664 -17.06795 291 ft 5 kts 269°
2026-05-04 15:41 14.66664 -17.06857 291 ft 11 kts 270°
2026-05-04 15:41 14.66664 -17.06939 293 ft 12 kts 270°
2026-05-04 15:42 14.66664 -17.07019 292 ft 11 kts 270°
2026-05-04 15:42 14.66632 -17.07083 294 ft 11 kts 200°
2026-05-04 15:42 14.66546 -17.07085 292 ft 14 kts 179°
2026-05-04 15:42 14.66435 -17.07085 291 ft 18 kts 180°
2026-05-04 15:43 14.66303 -17.07084 293 ft 20 kts 179°
2026-05-04 15:43 14.66166 -17.07083 290 ft 19 kts 179°
2026-05-04 15:43 14.66035 -17.07082 286 ft 19 kts 179°
2026-05-04 15:43 14.65908 -17.07080 285 ft 14 kts 179°
2026-05-04 15:44 14.65890 -17.07080 284 ft 2 kts 179°
2026-05-04 15:44 14.65874 -17.07080 287 ft 5 kts 179°
2026-05-04 15:44 14.65798 -17.07079 284 ft 16 kts 179°
2026-05-04 15:44 14.65675 -17.07078 281 ft 18 kts 180°
2026-05-04 15:45 14.65618 -17.07169 280 ft 17 kts 269°
2026-05-04 15:45 14.65559 -17.07253 278 ft 17 kts 167°
2026-05-04 15:45 14.65528 -17.07144 277 ft 17 kts 89°
2026-05-04 15:45 14.65591 -17.07078 279 ft 13 kts 357°
2026-05-04 15:46 14.65686 -17.07078 282 ft 15 kts
2026-05-04 15:46 14.65802 -17.07079 284 ft 18 kts 359°
2026-05-04 15:46 14.65941 -17.07081 285 ft 22 kts 359°
2026-05-04 15:46 14.66105 -17.07084 291 ft 25 kts 360°
2026-05-04 15:47 14.66287 -17.07083 291 ft 27 kts 359°
2026-05-04 15:47 14.66471 -17.07086 291 ft 26 kts 359°
2026-05-04 15:47 14.66643 -17.07086 297 ft 24 kts
2026-05-04 15:47 14.66801 -17.07088 294 ft 23 kts 359°
2026-05-04 15:48 14.66953 -17.07090 296 ft 22 kts 359°
2026-05-04 15:48 14.67104 -17.07092 296 ft 21 kts 359°
2026-05-04 15:48 14.67395 -17.07094 293 ft 21 kts 360°
2026-05-04 15:49 14.67549 -17.07095 290 ft 23 kts 359°
2026-05-04 15:49 14.67704 -17.07096 288 ft 22 kts 359°
2026-05-04 15:49 14.67855 -17.07100 284 ft 21 kts 358°
2026-05-04 15:49 14.68001 -17.07100 281 ft 21 kts
2026-05-04 15:50 14.68143 -17.07101 278 ft 20 kts 359°
2026-05-04 15:50 14.68282 -17.07102 273 ft 20 kts 360°
2026-05-04 15:50 14.68425 -17.07104 267 ft 21 kts 359°
2026-05-04 15:50 14.68540 -17.07108 264 ft 12 kts 343°
2026-05-04 15:51 14.68573 -17.07178 265 ft 12 kts 268°
2026-05-04 15:51 14.68570 -17.07262 265 ft 11 kts 259°
2026-05-04 15:51 14.68526 -17.07295 267 ft 4 kts 179°
2026-05-04 15:51 14.68520 -17.07295 267 ft 0 kts 179°
2026-05-04 15:52 14.68477 -17.07295 269 ft 30 kts 179°
2026-05-04 15:52 14.68026 -17.07291 283 ft 98 kts 179°
2026-05-04 15:52 14.67166 -17.07299 314 ft 148 kts 181°
2026-05-04 15:53 14.66040 -17.07255 663 ft 171 kts 181°
2026-05-04 15:53 14.64776 -17.07278 1043 ft 195 kts 184°
2026-05-04 15:53 14.63355 -17.07321 1577 ft 207 kts 184°
2026-05-04 15:53 14.61916 -17.07300 2378 ft 208 kts 180°
2026-05-04 15:54 14.60381 -17.07251 2765 ft 236 kts 180°
2026-05-04 15:54 14.58635 -17.07204 3121 ft 260 kts 179°
2026-05-04 15:54 14.56808 -17.07162 3812 ft 266 kts 179°
2026-05-04 15:54 14.54952 -17.07124 4670 ft 269 kts 178°
2026-05-04 15:55 14.53089 -17.06847 5389 ft 273 kts 157°
2026-05-04 15:55 14.51530 -17.05778 6322 ft 269 kts 131°
2026-05-04 15:55 14.50560 -17.04152 7212 ft 267 kts 109°
2026-05-04 15:55 14.50254 -17.02284 8097 ft 270 kts 92°
2026-05-04 15:56 14.50264 -17.00332 8958 ft 275 kts 90°
2026-05-04 15:56 14.50311 -16.98346 9569 ft 275 kts 90°
2026-05-04 15:56 14.50348 -16.96357 9863 ft 278 kts 91°
2026-05-04 15:56 14.50375 -16.94364 9879 ft 278 kts 91°
2026-05-04 15:57 14.50394 -16.92382 9891 ft 279 kts 91°
2026-05-04 15:57 14.50500 -16.90379 9884 ft 282 kts 79°
2026-05-04 15:57 14.51331 -16.88536 9891 ft 289 kts 55°
2026-05-04 15:57 14.52868 -16.87166 9918 ft 303 kts 32°
2026-05-04 15:58 14.54980 -16.86510 10256 ft 331 kts
2026-05-04 15:58 14.57324 -16.86451 10984 ft 340 kts
2026-05-04 15:58 14.59713 -16.86492 11799 ft 346 kts
2026-05-04 15:58 14.62113 -16.86551 12624 ft 350 kts
2026-05-04 15:59 14.64571 -16.86603 13465 ft 355 kts
2026-05-04 15:59 14.67063 -16.86644 14240 ft 360 kts
2026-05-04 15:59 14.69584 -16.86675 15082 ft 363 kts
2026-05-04 15:59 14.72119 -16.86701 15954 ft 365 kts
2026-05-04 16:00 14.74675 -16.86724 16743 ft 370 kts
2026-05-04 16:00 14.77241 -16.86746 17467 ft 376 kts
2026-05-04 16:00 14.79860 -16.86771 18407 ft 373 kts 359°
2026-05-04 16:00 14.82464 -16.86802 19194 ft 375 kts 359°
2026-05-04 16:01 14.85113 -16.86837 19814 ft 382 kts 358°
2026-05-04 16:01 14.87775 -16.86872 20427 ft 388 kts 358°
2026-05-04 16:01 14.90498 -16.86909 21052 ft 395 kts 358°
2026-05-04 16:01 14.93267 -16.86945 21728 ft 398 kts 358°
2026-05-04 16:02 14.96051 -16.86980 22465 ft 401 kts 358°
2026-05-04 16:02 14.97914 -16.87004 22849 ft 406 kts 358°
2026-05-04 16:02 15.04564 -16.87089 24247 ft 413 kts 357°
2026-05-04 16:03 15.06517 -16.87114 24619 ft 416 kts 357°
2026-05-04 16:03 15.09400 -16.87150 25130 ft 420 kts 357°
2026-05-04 16:03 15.12344 -16.87188 25646 ft 424 kts 356°
2026-05-04 16:03 15.15316 -16.87226 26162 ft 429 kts 356°
2026-05-04 16:04 15.18324 -16.87264 26686 ft 432 kts 356°
2026-05-04 16:04 15.24389 -16.87341 27668 ft 440 kts 356°
2026-05-04 16:04 15.27440 -16.87380 28145 ft 444 kts 356°
2026-05-04 16:05 15.30543 -16.87267 28581 ft 452 kts
2026-05-04 16:05 15.33568 -16.86250 29001 ft 462 kts 24°
2026-05-04 16:05 15.39281 -16.83035 29853 ft 473 kts 27°
2026-05-04 16:06 15.42135 -16.81363 30199 ft 477 kts 27°
2026-05-04 16:06 15.50885 -16.76313 31350 ft 483 kts 25°
2026-05-04 16:07 15.53846 -16.74634 31709 ft 486 kts 25°
2026-05-04 16:07 15.62814 -16.69570 32686 ft 494 kts 24°
2026-05-04 16:08 15.65805 -16.67879 33086 ft 493 kts 24°
2026-05-04 16:08 15.74793 -16.62788 34274 ft 492 kts 23°
2026-05-04 16:09 15.80828 -16.59368 34903 ft 492 kts 23°
2026-05-04 16:09 15.86842 -16.55957 35598 ft 491 kts 23°
2026-05-04 16:10 15.92815 -16.52568 36166 ft 491 kts 23°
2026-05-04 16:11 16.01805 -16.47461 37058 ft 491 kts 22°
2026-05-04 16:11 16.04808 -16.45750 37338 ft 491 kts 24°
2026-05-04 16:12 16.13336 -16.39682 38068 ft 499 kts 31°
2026-05-04 16:12 16.21697 -16.33276 38752 ft 497 kts 30°
2026-05-04 16:13 16.27359 -16.29065 38869 ft 502 kts 30°
2026-05-04 16:13 16.33050 -16.24854 38871 ft 500 kts 30°
2026-05-04 16:14 16.44239 -16.16548 38874 ft 493 kts 30°
2026-05-04 16:16 16.58174 -16.06183 38858 ft 492 kts 30°
2026-05-04 16:17 16.72120 -15.95784 38864 ft 496 kts 30°
2026-05-04 16:18 16.83387 -15.87365 38853 ft 499 kts 30°
2026-05-04 16:19 16.97523 -15.76784 38838 ft 501 kts 30°
2026-05-04 16:20 17.11678 -15.66169 38839 ft 500 kts 30°
2026-05-04 16:22 17.25741 -15.55626 38828 ft 498 kts 30°
2026-05-04 16:23 17.42583 -15.42968 38822 ft 496 kts 30°
2026-05-04 16:25 17.59375 -15.30318 38813 ft 496 kts 30°
2026-05-04 16:26 17.79026 -15.15504 38800 ft 498 kts 30°
2026-05-04 16:28 17.93099 -15.04874 38803 ft 499 kts 30°
2026-05-04 16:29 18.12749 -14.89985 38787 ft 498 kts 30°
2026-05-04 16:31 18.26786 -14.79324 38793 ft 498 kts 29°
2026-05-04 16:32 18.43616 -14.66513 38790 ft 497 kts 29°
2026-05-04 16:33 18.54833 -14.57957 38803 ft 497 kts 29°
2026-05-04 16:34 18.63246 -14.51531 38796 ft 497 kts 29°
2026-05-04 16:35 18.80046 -14.38673 38789 ft 498 kts 29°
2026-05-04 16:36 18.88439 -14.32238 38791 ft 497 kts 29°
2026-05-04 16:37 18.96852 -14.25779 38787 ft 498 kts 29°
2026-05-04 16:38 19.08038 -14.17178 38783 ft 498 kts 30°
2026-05-04 16:39 19.22012 -14.06413 38787 ft 497 kts 30°
2026-05-04 16:40 19.33177 -13.97796 38791 ft 498 kts 30°
2026-05-04 16:41 19.47164 -13.86978 38788 ft 497 kts 30°
2026-05-04 16:43 19.61096 -13.76180 38801 ft 496 kts 30°
2026-05-04 16:43 19.69449 -13.69696 38791 ft 497 kts 30°
2026-05-04 16:45 19.86160 -13.56695 38782 ft 497 kts 30°
2026-05-04 16:46 20.00088 -13.45833 38785 ft 497 kts 30°
2026-05-04 16:47 20.11199 -13.37150 38784 ft 496 kts 30°
2026-05-04 16:48 20.22323 -13.28441 38785 ft 496 kts 30°
2026-05-04 16:49 20.32496 -13.20462 38810 ft 496 kts 31°
2026-05-04 16:50 20.43610 -13.11730 38938 ft 496 kts 31°
2026-05-04 16:51 20.52290 -13.06102 38940 ft 479 kts 12°
2026-05-04 16:52 20.65031 -13.02682 38942 ft 471 kts
2026-05-04 16:53 20.74629 -13.00204 38871 ft 474 kts
2026-05-04 16:54 20.87475 -12.96802 38813 ft 477 kts
2026-05-04 16:55 21.06825 -12.91665 38825 ft 478 kts
2026-05-04 16:56 21.22946 -12.87377 38828 ft 477 kts
2026-05-04 16:57 21.32623 -12.84798 38846 ft 477 kts
2026-05-04 16:58 21.45493 -12.81364 38828 ft 477 kts
2026-05-04 17:00 21.64781 -12.76205 38857 ft 477 kts
2026-05-04 17:01 21.80906 -12.71882 38840 ft 477 kts
2026-05-04 17:02 21.93786 -12.68421 38843 ft 478 kts
2026-05-04 17:03 22.03492 -12.65809 38854 ft 479 kts
2026-05-04 17:03 22.13153 -12.63205 38855 ft 478 kts
2026-05-04 17:04 22.26101 -12.59710 38862 ft 479 kts
2026-05-04 17:05 22.39026 -12.56214 38866 ft 480 kts
2026-05-04 17:06 22.48721 -12.53587 38861 ft 481 kts
2026-05-04 17:07 22.57426 -12.51225 38869 ft 481 kts
2026-05-04 17:07 22.64998 -12.49168 38876 ft 482 kts
2026-05-04 17:08 22.74758 -12.46512 38875 ft 483 kts
2026-05-04 17:09 22.81244 -12.44395 38989 ft 491 kts 12°
2026-05-04 17:09 22.84478 -12.43192 39217 ft 491 kts 12°
2026-05-04 17:09 22.87703 -12.41971 39484 ft 489 kts 12°
2026-05-04 17:10 22.94113 -12.39564 39900 ft 486 kts 12°
2026-05-04 17:10 23.03687 -12.36048 39876 ft 483 kts 12°
2026-05-04 17:11 23.10007 -12.33738 39878 ft 480 kts 12°
2026-05-04 17:12 23.19503 -12.30259 39879 ft 478 kts 12°
2026-05-04 17:13 23.35330 -12.24450 39899 ft 490 kts 12°
2026-05-04 17:14 23.48258 -12.19686 39884 ft 491 kts 12°
2026-05-04 17:15 23.57984 -12.16110 39881 ft 491 kts 12°
2026-05-04 17:16 23.70909 -12.11347 39885 ft 490 kts 12°
2026-05-04 17:17 23.83809 -12.06582 39884 ft 490 kts 12°
2026-05-04 17:18 23.96760 -12.01787 39885 ft 490 kts 11°
2026-05-04 17:19 24.09653 -11.97005 39878 ft 489 kts 11°
2026-05-04 17:20 24.22526 -11.92220 39879 ft 489 kts 12°
2026-05-04 17:20 24.32198 -11.88618 39882 ft 489 kts 12°
2026-05-04 17:21 24.45040 -11.83826 39881 ft 489 kts 12°
2026-05-04 17:22 24.51504 -11.81410 39878 ft 489 kts 12°
2026-05-04 17:23 24.64361 -11.76598 39891 ft 490 kts 12°
2026-05-04 17:24 24.74074 -11.72954 39886 ft 490 kts 12°
2026-05-04 17:25 24.86951 -11.68115 39914 ft 490 kts 12°
2026-05-04 17:26 24.99859 -11.63253 39895 ft 491 kts 12°
2026-05-04 17:27 25.16018 -11.57151 39902 ft 490 kts 12°
2026-05-04 17:28 25.28896 -11.52106 39913 ft 492 kts 14°
2026-05-04 17:29 25.48098 -11.44092 39918 ft 491 kts 13°
2026-05-04 17:31 25.64080 -11.37466 39924 ft 490 kts 13°
2026-05-04 17:32 25.80013 -11.30839 39923 ft 489 kts 13°
2026-05-04 17:33 25.92718 -11.25540 39924 ft 488 kts 13°
2026-05-04 17:34 26.04376 -11.20667 39924 ft 488 kts 13°
2026-05-04 17:35 26.20244 -11.14019 39928 ft 488 kts 13°
2026-05-04 17:36 26.26563 -11.11365 39929 ft 487 kts 13°
2026-05-04 17:36 26.32925 -11.08690 39924 ft 487 kts 13°
2026-05-04 17:37 26.39233 -11.06035 39928 ft 487 kts 13°
2026-05-04 17:37 26.45578 -11.03362 39953 ft 487 kts 13°
2026-05-04 17:38 26.51921 -11.00686 39923 ft 487 kts 13°
2026-05-04 17:38 26.58227 -10.98022 39920 ft 487 kts 13°
2026-05-04 17:39 26.67734 -10.94001 39915 ft 486 kts 13°
2026-05-04 17:39 26.74019 -10.91338 39915 ft 485 kts 13°
2026-05-04 17:40 26.80345 -10.88655 39916 ft 486 kts 13°
2026-05-04 17:40 26.86678 -10.85966 39908 ft 485 kts 13°
2026-05-04 17:41 26.92999 -10.83279 39910 ft 485 kts 13°
2026-05-04 17:41 26.99279 -10.80606 39913 ft 485 kts 13°
2026-05-04 17:42 27.05589 -10.77917 39912 ft 485 kts 13°
2026-05-04 17:42 27.11902 -10.75223 39920 ft 485 kts 13°
2026-05-04 17:43 27.18227 -10.72521 39922 ft 485 kts 13°
2026-05-04 17:43 27.24517 -10.69831 39924 ft 485 kts 13°
2026-05-04 17:44 27.30840 -10.67123 39920 ft 485 kts 13°
2026-05-04 17:44 27.37155 -10.64415 39926 ft 485 kts 13°
2026-05-04 17:45 27.43482 -10.61699 39927 ft 486 kts 13°
2026-05-04 17:45 27.49757 -10.59002 39932 ft 486 kts 13°
2026-05-04 17:46 27.56090 -10.56276 39923 ft 486 kts 14°
2026-05-04 17:46 27.62368 -10.53570 39929 ft 485 kts 14°
2026-05-04 17:47 27.68749 -10.51226 39926 ft 473 kts
2026-05-04 17:47 27.75231 -10.50133 39928 ft 469 kts 359°
2026-05-04 17:48 27.81664 -10.49154 39941 ft 469 kts 359°
2026-05-04 17:48 27.88163 -10.48122 39930 ft 470 kts 359°
2026-05-04 17:49 27.94644 -10.47053 39940 ft 470 kts 360°
2026-05-04 17:49 28.01085 -10.45975 39947 ft 471 kts 360°
2026-05-04 17:50 28.07592 -10.44883 39947 ft 471 kts 360°
2026-05-04 17:50 28.14084 -10.43794 39943 ft 471 kts 360°
2026-05-04 17:51 28.20533 -10.42711 39950 ft 471 kts 360°
2026-05-04 17:51 28.27029 -10.41620 39978 ft 471 kts 359°
2026-05-04 17:52 28.33523 -10.40529 39964 ft 471 kts 359°
2026-05-04 17:52 28.40020 -10.39435 39954 ft 471 kts 359°
2026-05-04 17:53 28.46471 -10.38347 39956 ft 471 kts 359°
2026-05-04 17:53 28.52967 -10.37250 39979 ft 471 kts 360°
2026-05-04 17:54 28.59458 -10.36154 39978 ft 471 kts 359°
2026-05-04 17:54 28.65903 -10.35069 39988 ft 470 kts 359°
2026-05-04 17:55 28.72373 -10.33972 39975 ft 470 kts 359°
2026-05-04 17:55 28.78860 -10.32868 39977 ft 470 kts 359°
2026-05-04 17:56 28.85291 -10.31774 40027 ft 470 kts 359°
2026-05-04 17:56 28.91772 -10.30673 39983 ft 470 kts 359°
2026-05-04 17:57 28.98251 -10.29569 39981 ft 470 kts 359°
2026-05-04 17:57 29.04696 -10.28470 39979 ft 470 kts 359°
2026-05-04 17:58 29.11187 -10.27362 39976 ft 470 kts 359°
2026-05-04 17:58 29.17667 -10.26256 39993 ft 471 kts 359°
2026-05-04 17:59 29.24166 -10.25145 39976 ft 471 kts 359°
2026-05-04 18:00 29.33852 -10.23483 40001 ft 470 kts 359°
2026-05-04 18:00 29.40298 -10.22375 40008 ft 470 kts 359°
2026-05-04 18:01 29.46774 -10.21262 40025 ft 470 kts 359°
2026-05-04 18:01 29.53140 -10.20167 40012 ft 470 kts 359°
2026-05-04 18:02 29.62435 -10.18563 40012 ft 469 kts 359°
2026-05-04 18:02 29.68897 -10.17447 40013 ft 469 kts 359°
2026-05-04 18:03 29.75352 -10.16332 40025 ft 469 kts 359°
2026-05-04 18:03 29.81776 -10.15220 40019 ft 469 kts 359°
2026-05-04 18:04 29.88256 -10.14096 40014 ft 469 kts 359°
2026-05-04 18:05 29.97886 -10.12424 40009 ft 468 kts 359°
2026-05-04 18:05 30.04339 -10.11302 40009 ft 468 kts 359°
2026-05-04 18:06 30.14018 -10.09616 40001 ft 468 kts 359°
2026-05-04 18:06 30.20437 -10.08496 39990 ft 468 kts 359°
2026-05-04 18:07 30.26883 -10.07370 39999 ft 467 kts 359°
2026-05-04 18:07 30.33332 -10.06241 39992 ft 467 kts 359°
2026-05-04 18:08 30.39721 -10.05122 40004 ft 467 kts 359°
2026-05-04 18:08 30.46165 -10.03992 39991 ft 467 kts 359°
2026-05-04 18:09 30.59041 -10.01729 40022 ft 468 kts 359°
2026-05-04 18:10 30.65425 -10.00605 40001 ft 468 kts 359°
2026-05-04 18:10 30.71883 -9.99466 39998 ft 468 kts 359°
2026-05-04 18:11 30.78329 -9.98328 40001 ft 468 kts 359°
2026-05-04 18:11 30.84743 -9.97193 39991 ft 468 kts 359°
2026-05-04 18:12 30.91194 -9.96051 39994 ft 468 kts 359°
2026-05-04 18:12 30.97639 -9.94908 40003 ft 468 kts 359°
2026-05-04 18:13 31.04039 -9.93771 40001 ft 468 kts 359°
2026-05-04 18:14 31.13709 -9.92051 40007 ft 467 kts 359°
2026-05-04 18:14 31.20129 -9.90907 40019 ft 467 kts 359°
2026-05-04 18:15 31.32948 -9.88619 40021 ft 466 kts 359°
2026-05-04 18:16 31.39371 -9.87469 40022 ft 466 kts 359°
2026-05-04 18:16 31.45741 -9.86329 40028 ft 466 kts 359°
2026-05-04 18:17 31.55372 -9.84600 40024 ft 465 kts 359°
2026-05-04 18:18 31.64955 -9.82876 40020 ft 464 kts 359°
2026-05-04 18:18 31.70277 -9.81917 40068 ft 464 kts 359°
2026-05-04 18:19 31.79859 -9.80189 40038 ft 463 kts 359°
2026-05-04 18:19 31.86205 -9.79042 40042 ft 463 kts 359°
2026-05-04 18:20 31.92586 -9.77887 40049 ft 462 kts 359°
2026-05-04 18:20 31.98948 -9.76734 40069 ft 462 kts 359°
2026-05-04 18:21 32.05269 -9.75587 40062 ft 462 kts 359°
2026-05-04 18:21 32.11642 -9.74429 40055 ft 462 kts 359°
2026-05-04 18:22 32.18004 -9.73271 40062 ft 462 kts 359°
2026-05-04 18:22 32.24330 -9.72118 40061 ft 462 kts 359°
2026-05-04 18:23 32.30694 -9.70957 40070 ft 462 kts 359°
2026-05-04 18:23 32.37072 -9.69791 40078 ft 462 kts 359°
2026-05-04 18:24 32.43449 -9.68624 40074 ft 463 kts 359°
2026-05-04 18:24 32.49769 -9.67465 40076 ft 462 kts 359°
2026-05-04 18:25 32.56146 -9.66295 40079 ft 463 kts 359°
2026-05-04 18:25 32.62484 -9.65129 40083 ft 463 kts 359°
2026-05-04 18:26 32.68871 -9.63953 40083 ft 463 kts 359°
2026-05-04 18:26 32.75248 -9.62777 40085 ft 462 kts 359°
2026-05-04 18:27 32.81572 -9.61610 40096 ft 463 kts 360°
2026-05-04 18:27 32.87928 -9.60435 40095 ft 462 kts 360°
2026-05-04 18:28 32.94297 -9.59255 40082 ft 462 kts 360°
2026-05-04 18:28 33.00669 -9.58073 40088 ft 462 kts 359°
2026-05-04 18:29 33.06969 -9.57348 40104 ft 454 kts 354°
2026-05-04 18:29 33.13294 -9.56996 40096 ft 453 kts 353°
2026-05-04 18:30 33.22741 -9.56456 40095 ft 454 kts 353°
2026-05-04 18:31 33.29071 -9.56039 40099 ft 455 kts 354°
2026-05-04 18:31 33.35358 -9.55610 40103 ft 455 kts 354°
2026-05-04 18:32 33.41687 -9.55175 40106 ft 455 kts 354°
2026-05-04 18:32 33.48044 -9.54738 40100 ft 455 kts 354°
2026-05-04 18:33 33.54368 -9.54304 40104 ft 455 kts 354°
2026-05-04 18:33 33.60655 -9.53873 40118 ft 455 kts 354°
2026-05-04 18:34 33.66994 -9.53438 40108 ft 455 kts 354°
2026-05-04 18:34 33.73285 -9.53005 40104 ft 455 kts 354°
2026-05-04 18:35 33.79615 -9.52569 40104 ft 454 kts 354°
2026-05-04 18:35 33.85906 -9.52134 40136 ft 454 kts 354°
2026-05-04 18:36 33.92232 -9.51698 40113 ft 454 kts 354°
2026-05-04 18:36 33.98551 -9.51260 40107 ft 454 kts 354°
2026-05-04 18:37 34.04821 -9.50825 40109 ft 454 kts 354°
2026-05-04 18:37 34.11126 -9.50387 40134 ft 453 kts 354°
2026-05-04 18:38 34.17448 -9.49948 40117 ft 453 kts 354°
2026-05-04 18:38 34.23718 -9.49512 40109 ft 453 kts 354°
2026-05-04 18:39 34.30029 -9.49072 40111 ft 453 kts 354°
2026-05-04 18:39 34.36336 -9.48631 40112 ft 453 kts 354°
2026-05-04 18:40 34.42646 -9.48190 40120 ft 454 kts 354°
2026-05-04 18:40 34.48928 -9.47751 40116 ft 454 kts 354°
2026-05-04 18:41 34.55263 -9.47306 40114 ft 454 kts 354°
2026-05-04 18:41 34.61584 -9.46862 40116 ft 455 kts 354°
2026-05-04 18:42 34.67909 -9.46417 40120 ft 455 kts 354°
2026-05-04 18:42 34.74209 -9.45972 40123 ft 455 kts 354°
2026-05-04 18:43 34.80554 -9.45524 40113 ft 455 kts 354°
2026-05-04 18:43 34.86840 -9.45079 40118 ft 455 kts 354°
2026-05-04 18:44 34.93165 -9.44631 40120 ft 454 kts 354°
2026-05-04 18:44 34.99479 -9.44183 40118 ft 454 kts 354°
2026-05-04 18:45 35.05752 -9.43738 40115 ft 453 kts 354°
2026-05-04 18:45 35.12049 -9.43290 40123 ft 453 kts 354°
2026-05-04 18:46 35.18344 -9.42842 40124 ft 452 kts 354°
2026-05-04 18:46 35.24639 -9.42392 40121 ft 452 kts 354°
2026-05-04 18:47 35.30895 -9.41945 40119 ft 451 kts 354°
2026-05-04 18:47 35.37165 -9.41496 40120 ft 451 kts 354°
2026-05-04 18:48 35.43438 -9.41047 40128 ft 451 kts 354°
2026-05-04 18:48 35.49672 -9.40600 40127 ft 451 kts 354°
2026-05-04 18:49 35.55941 -9.40149 40124 ft 450 kts 354°
2026-05-04 18:49 35.62197 -9.39698 40121 ft 450 kts 354°
2026-05-04 18:50 35.68456 -9.39246 40124 ft 450 kts 354°
2026-05-04 18:50 35.74683 -9.38797 40124 ft 450 kts 354°
2026-05-04 18:51 35.80960 -9.38343 40122 ft 450 kts 354°
2026-05-04 18:51 35.87196 -9.37891 40121 ft 450 kts 354°
2026-05-04 18:52 35.93463 -9.37436 40123 ft 451 kts 354°
2026-05-04 18:52 35.99714 -9.36768 40127 ft 456 kts 359°
2026-05-04 18:53 36.06013 -9.35592 40119 ft 458 kts
2026-05-04 18:53 36.12312 -9.34346 40122 ft 458 kts
2026-05-04 18:54 36.18629 -9.33131 40128 ft 458 kts
2026-05-04 18:54 36.24901 -9.31952 40125 ft 457 kts 360°
2026-05-04 18:55 36.31193 -9.30777 40121 ft 457 kts 360°
2026-05-04 18:55 36.40592 -9.29020 40141 ft 456 kts
2026-05-04 18:56 36.46873 -9.27842 40125 ft 456 kts
2026-05-04 18:56 36.53156 -9.26661 40120 ft 456 kts
2026-05-04 18:57 36.59433 -9.25480 40122 ft 455 kts
2026-05-04 18:57 36.65683 -9.24301 40138 ft 456 kts
2026-05-04 18:58 36.71965 -9.23116 40123 ft 456 kts
2026-05-04 18:58 36.78197 -9.21937 40117 ft 456 kts
2026-05-04 18:59 36.84473 -9.20748 40117 ft 455 kts
2026-05-04 18:59 36.90744 -9.19558 40128 ft 456 kts
2026-05-04 19:00 36.97018 -9.18365 40121 ft 456 kts
2026-05-04 19:00 37.03267 -9.17175 40115 ft 456 kts
2026-05-04 19:01 37.09538 -9.15979 40119 ft 456 kts
2026-05-04 19:01 37.15829 -9.14777 40119 ft 457 kts
2026-05-04 19:02 37.22080 -9.13581 40119 ft 456 kts
2026-05-04 19:02 37.28377 -9.12374 40116 ft 456 kts
2026-05-04 19:03 37.34620 -9.11175 40117 ft 456 kts
2026-05-04 19:03 37.39838 -9.10171 40129 ft 456 kts
2026-05-04 19:04 37.46113 -9.08963 40122 ft 456 kts
2026-05-04 19:04 37.52397 -9.07750 40112 ft 455 kts
2026-05-04 19:05 37.58667 -9.06538 40108 ft 455 kts
2026-05-04 19:05 37.64903 -9.05331 40112 ft 455 kts
2026-05-04 19:06 37.71175 -9.04115 40111 ft 455 kts
2026-05-04 19:06 37.77400 -9.02906 40108 ft 454 kts
2026-05-04 19:07 37.83660 -9.01687 40109 ft 454 kts
2026-05-04 19:07 37.89887 -9.00474 40111 ft 454 kts
2026-05-04 19:08 37.96143 -8.99252 40106 ft 453 kts
2026-05-04 19:08 38.02374 -8.98033 40107 ft 453 kts
2026-05-04 19:09 38.08612 -8.96810 40106 ft 452 kts
2026-05-04 19:09 38.14799 -8.95596 40104 ft 452 kts
2026-05-04 19:10 38.21024 -8.94372 40103 ft 452 kts
2026-05-04 19:10 38.27214 -8.93153 40100 ft 451 kts
2026-05-04 19:11 38.33430 -8.91927 40129 ft 451 kts
2026-05-04 19:11 38.39644 -8.90699 40111 ft 451 kts
2026-05-04 19:12 38.48970 -8.88852 40101 ft 451 kts
2026-05-04 19:13 38.55180 -8.87619 40106 ft 451 kts
2026-05-04 19:13 38.61394 -8.86384 40108 ft 451 kts
2026-05-04 19:14 38.67576 -8.85152 40101 ft 451 kts
2026-05-04 19:14 38.73800 -8.83910 40103 ft 451 kts
2026-05-04 19:15 38.79980 -8.82675 40129 ft 451 kts
2026-05-04 19:15 38.86192 -8.81431 40110 ft 451 kts
2026-05-04 19:16 38.92367 -8.80192 40102 ft 451 kts
2026-05-04 19:16 38.98573 -8.78945 40095 ft 450 kts
2026-05-04 19:17 39.04775 -8.77696 40111 ft 450 kts
2026-05-04 19:17 39.09729 -8.76698 40103 ft 450 kts
2026-05-04 19:18 39.15925 -8.75446 40093 ft 449 kts
2026-05-04 19:18 39.22105 -8.74196 40096 ft 449 kts
2026-05-04 19:18 39.25177 -8.73575 39799 ft 455 kts
2026-05-04 19:19 39.28345 -8.72936 39271 ft 455 kts
2026-05-04 19:19 39.31429 -8.72309 38700 ft 454 kts
2026-05-04 19:19 39.34570 -8.71670 37935 ft 454 kts
2026-05-04 19:19 39.37698 -8.71032 37268 ft 453 kts
2026-05-04 19:20 39.40810 -8.70396 36611 ft 451 kts
2026-05-04 19:20 39.43870 -8.69771 35975 ft 449 kts 360°
2026-05-04 19:20 39.46942 -8.69142 35471 ft 444 kts 359°
2026-05-04 19:20 39.49987 -8.68517 35004 ft 440 kts 359°
2026-05-04 19:21 39.52999 -8.67900 34472 ft 437 kts 359°
2026-05-04 19:21 39.55991 -8.67287 33933 ft 433 kts 358°
2026-05-04 19:21 39.58958 -8.66680 33375 ft 429 kts 358°
2026-05-04 19:21 39.61897 -8.66077 32859 ft 425 kts 358°
2026-05-04 19:22 39.64798 -8.65481 32362 ft 420 kts 358°
2026-05-04 19:22 39.67649 -8.64896 31889 ft 415 kts 358°
2026-05-04 19:22 39.70488 -8.64313 31414 ft 411 kts 358°
2026-05-04 19:22 39.73314 -8.63733 30974 ft 408 kts 358°
2026-05-04 19:23 39.76101 -8.63161 30501 ft 405 kts 357°
2026-05-04 19:23 39.78891 -8.62589 29997 ft 402 kts 357°
2026-05-04 19:23 39.81644 -8.62022 29467 ft 398 kts 358°
2026-05-04 19:23 39.84328 -8.61469 28957 ft 393 kts 358°
2026-05-04 19:24 39.87023 -8.60911 28462 ft 388 kts 358°
2026-05-04 19:24 39.89677 -8.60362 27981 ft 384 kts 358°
2026-05-04 19:24 39.92313 -8.59818 27468 ft 380 kts 358°
2026-05-04 19:24 39.94888 -8.59287 27047 ft 377 kts 359°
2026-05-04 19:25 39.97468 -8.58755 26548 ft 374 kts 359°
2026-05-04 19:25 40.00034 -8.58225 26058 ft 371 kts 359°
2026-05-04 19:25 40.02576 -8.57699 25591 ft 368 kts 359°
2026-05-04 19:25 40.05099 -8.57177 25116 ft 365 kts 359°
2026-05-04 19:26 40.07615 -8.56656 24642 ft 363 kts 359°
2026-05-04 19:26 40.10096 -8.56141 24192 ft 360 kts 360°
2026-05-04 19:26 40.12567 -8.55628 23699 ft 359 kts
2026-05-04 19:26 40.15037 -8.55116 23151 ft 356 kts
2026-05-04 19:27 40.17438 -8.54615 22670 ft 353 kts
2026-05-04 19:27 40.19865 -8.54109 22160 ft 350 kts
2026-05-04 19:27 40.22258 -8.53610 21677 ft 347 kts
2026-05-04 19:27 40.24628 -8.53115 21206 ft 343 kts
2026-05-04 19:28 40.26978 -8.52625 20741 ft 340 kts
2026-05-04 19:28 40.29302 -8.52140 20275 ft 337 kts
2026-05-04 19:28 40.31617 -8.51657 19816 ft 334 kts
2026-05-04 19:28 40.33912 -8.51177 19355 ft 332 kts
2026-05-04 19:29 40.36161 -8.50707 18897 ft 330 kts
2026-05-04 19:29 40.38428 -8.50233 18448 ft 328 kts
2026-05-04 19:29 40.40678 -8.49761 17929 ft 326 kts
2026-05-04 19:29 40.42917 -8.49292 17427 ft 324 kts
2026-05-04 19:30 40.45139 -8.48825 16953 ft 321 kts
2026-05-04 19:30 40.47334 -8.48364 16488 ft 319 kts
2026-05-04 19:30 40.49518 -8.47905 16029 ft 316 kts
2026-05-04 19:30 40.51690 -8.47449 15570 ft 314 kts
2026-05-04 19:31 40.53820 -8.47001 15122 ft 312 kts
2026-05-04 19:31 40.55967 -8.46549 14664 ft 311 kts
2026-05-04 19:31 40.58105 -8.46098 14220 ft 309 kts
2026-05-04 19:31 40.60200 -8.45657 13775 ft 307 kts
2026-05-04 19:32 40.62311 -8.45212 13266 ft 306 kts
2026-05-04 19:32 40.64417 -8.44767 12790 ft 304 kts
2026-05-04 19:32 40.66497 -8.44328 12313 ft 302 kts
2026-05-04 19:32 40.68564 -8.43891 11862 ft 299 kts
2026-05-04 19:33 40.70586 -8.43464 11434 ft 296 kts
2026-05-04 19:33 40.72603 -8.43505 10972 ft 287 kts 343°
2026-05-04 19:33 40.74431 -8.44473 10583 ft 280 kts 330°
2026-05-04 19:33 40.76137 -8.45651 10155 ft 278 kts 329°
2026-05-04 19:34 40.77805 -8.46832 10032 ft 263 kts 329°
2026-05-04 19:34 40.79437 -8.47986 9383 ft 265 kts 329°
2026-05-04 19:34 40.81038 -8.49110 8919 ft 257 kts 329°
2026-05-04 19:34 40.82583 -8.50189 8517 ft 248 kts 329°
2026-05-04 19:35 40.84068 -8.51224 8143 ft 240 kts 329°
2026-05-04 19:35 40.85537 -8.52247 7800 ft 238 kts 330°
2026-05-04 19:35 40.87006 -8.53269 7436 ft 238 kts 330°
2026-05-04 19:35 40.88473 -8.54287 7080 ft 238 kts 330°
2026-05-04 19:36 40.89944 -8.55309 6720 ft 238 kts 330°
2026-05-04 19:36 40.91408 -8.56325 6356 ft 237 kts 330°
2026-05-04 19:36 40.92851 -8.57327 6021 ft 236 kts 330°
2026-05-04 19:36 40.94295 -8.58329 5745 ft 232 kts 330°
2026-05-04 19:37 40.95696 -8.59299 5491 ft 222 kts 330°
2026-05-04 19:37 40.97041 -8.60231 5217 ft 213 kts 330°
2026-05-04 19:37 40.98323 -8.61107 4974 ft 201 kts 334°
2026-05-04 19:37 40.99626 -8.61555 4741 ft 191 kts 347°
2026-05-04 19:38 41.00909 -8.61867 4514 ft 182 kts 346°
2026-05-04 19:38 41.02140 -8.62188 4308 ft 181 kts 346°
2026-05-04 19:38 41.03381 -8.62514 4094 ft 182 kts 346°
2026-05-04 19:38 41.04618 -8.62843 3883 ft 179 kts 346°
2026-05-04 19:39 41.05818 -8.63161 3702 ft 171 kts 345°
2026-05-04 19:39 41.06972 -8.63462 3465 ft 166 kts 346°
2026-05-04 19:39 41.08084 -8.63751 3245 ft 161 kts 346°
2026-05-04 19:39 41.09154 -8.64029 3075 ft 152 kts 346°
2026-05-04 19:40 41.10149 -8.64288 2903 ft 143 kts 346°
2026-05-04 19:40 41.11106 -8.64537 2746 ft 133 kts 345°
2026-05-04 19:40 41.11972 -8.64762 2546 ft 122 kts 345°
2026-05-04 19:40 41.12807 -8.64981 2415 ft 123 kts 346°
2026-05-04 19:41 41.13647 -8.65202 2244 ft 125 kts 345°
2026-05-04 19:41 41.14495 -8.65425 2078 ft 121 kts 347°
2026-05-04 19:41 41.15288 -8.65632 1921 ft 117 kts 347°
2026-05-04 19:41 41.16089 -8.65840 1750 ft 119 kts 345°
2026-05-04 19:42 41.16884 -8.66047 1600 ft 116 kts 345°
2026-05-04 19:42 41.17682 -8.66271 1482 ft 118 kts 348°
2026-05-04 19:42 41.18449 -8.66467 1336 ft 117 kts 345°
2026-05-04 19:42 41.19222 -8.66674 1171 ft 118 kts 347°
2026-05-04 19:43 41.19951 -8.66849 952 ft 119 kts 346°
2026-05-04 19:43 41.20766 -8.67051 782 ft 122 kts 345°
2026-05-04 19:43 41.21589 -8.67295 626 ft 122 kts 345°
2026-05-04 19:43 41.22383 -8.67493 442 ft 117 kts 343°
2026-05-04 19:44 41.23186 -8.67706 291 ft 116 kts 345°
2026-05-04 19:44 41.23907 -8.67892 220 ft 94 kts 348°
2026-05-04 19:44 41.24394 -8.68020 218 ft 50 kts 348°
2026-05-04 19:44 41.24641 -8.68082 207 ft 30 kts 349°
2026-05-04 19:45 41.24763 -8.68114 203 ft 16 kts 349°
2026-05-04 19:45 41.24921 -8.68155 195 ft 28 kts 349°
2026-05-04 19:45 41.25106 -8.68168 195 ft 20 kts
2026-05-04 19:45 41.25189 -8.68142 183 ft 10 kts 15°
2026-05-04 19:46 41.25247 -8.68116 182 ft 6 kts 19°
2026-05-04 19:46 41.25282 -8.68090 181 ft 7 kts 48°
2026-05-04 19:46 41.25288 -8.68040 181 ft 9 kts 108°
2026-05-04 19:46 41.25224 -8.68004 193 ft 12 kts 168°
2026-05-04 19:47 41.25137 -8.67981 188 ft 14 kts 168°
2026-05-04 19:47 41.25042 -8.67957 191 ft 14 kts 169°
2026-05-04 19:47 41.24981 -8.67942 199 ft 13 kts 169°
2026-05-04 19:47 41.24895 -8.67914 205 ft 13 kts 165°
2026-05-04 19:48 41.24815 -8.67868 203 ft 12 kts 150°
2026-05-04 19:48 41.24737 -8.67826 206 ft 12 kts 167°
2026-05-04 19:48 41.24655 -8.67803 213 ft 13 kts 168°
2026-05-04 19:48 41.24569 -8.67779 215 ft 12 kts 168°
2026-05-04 19:49 41.24485 -8.67755 219 ft 12 kts 168°
2026-05-04 19:49 41.24403 -8.67731 223 ft 12 kts 168°
2026-05-04 19:49 41.24325 -8.67707 227 ft 12 kts 164°
2026-05-04 19:49 41.24260 -8.67630 233 ft 9 kts 128°
2026-05-04 19:50 41.24214 -8.67582 236 ft 8 kts 160°
2026-05-04 19:50 41.24178 -8.67577 235 ft 5 kts 206°
2026-05-04 19:50 41.24165 -8.67626 234 ft 6 kts 258°
2026-05-04 19:50 41.24162 -8.67648 234 ft 1 kts 258°
2026-05-04 19:51 41.24160 -8.67661 234 ft 1 kts 258°
2026-05-04 19:51 41.24159 -8.67668 234 ft 1 kts 258°
2026-05-04 19:51 41.24158 -8.67672 234 ft 0 kts 258°